CW1880 Weather Reports


time (UTC)temp
C
wind
direction
speed
KPH
gust
KPH
rain 1hr
cm
rain 24hr
cm
rain mn
cm
humidity
%
barometer
mb
20260506112148 15 45 11.3 24.1 0.00 0.00 0.00 54 1009.1
20260506111149 15 90 9.7 19.3 0.00 0.00 0.00 51 1009.0
20260506110146 15 83 11.3 24.1 0.00 0.00 0.00 53 1009.1
20260506105144 16 39 9.7 22.5 0.00 0.00 0.00 53 1009.0
20260506103139 16 80 14.5 29.0 0.00 0.00 0.00 52 1009.2
20260506102140 15 48 14.5 29.0 0.00 0.00 0.00 60 1009.0
20260506101137 13 75 6.4 19.3 0.00 0.00 0.00 64 1009.0
20260506095134 13 54 11.3 17.7 0.00 0.00 0.00 65 1009.0
20260506094133 13 62 6.4 19.3 0.00 0.00 0.00 65 1008.9
20260506093130 13 44 4.8 19.3 0.00 0.00 0.00 67 1009.0
20260506092108 13 55 11.3 20.9 0.00 0.00 0.00 65 1009.0
20260506091110 13 34 6.4 19.3 0.00 0.00 0.00 65 1008.8
20260506085102 13 3 8.0 19.3 0.00 0.00 0.00 70 1008.7
20260506084058 12 37 8.0 25.7 0.00 0.00 0.00 71 1008.7
20260506081051 12 87 9.7 14.5 0.00 0.00 0.00 73 1008.6
20260506073045 12 6 11.3 19.3 0.00 0.00 0.00 73 1008.5
20260506072045 12 73 4.8 11.3 0.00 0.00 0.00 75 1008.4
20260506071042 12 48 4.8 20.9 0.00 0.00 0.00 75 1008.5
20260506062026 11 63 11.3 24.1 0.00 0.00 0.00 79 1008.3
20260506061028 11 28 11.3 19.3 0.00 0.00 0.00 80 1008.1
20260506050943 10 62 11.3 19.3 0.00 0.00 0.00 81 1008.1
20260506044947 10 31 8.0 14.5 0.00 0.00 0.00 81 1008.1
20260506041936 10 55 6.4 20.9 0.00 0.00 0.00 82 1008.2
20260506035934 10 1 8.0 19.3 0.00 0.00 0.00 82 1008.2
20260506034932 10 0 8.0 14.5 0.00 0.00 0.00 81 1008.2
20260506033934 10 18 3.2 16.1 0.00 0.00 0.00 82 1008.4
20260506032933 10 51 8.0 19.3 0.00 0.00 0.00 82 1008.3
20260506031933 10 18 8.0 16.1 0.00 0.00 0.00 82 1008.4
20260506030927 10 44 9.7 16.1 0.00 0.00 0.00 82 1008.4
20260506025927 10 41 6.4 17.7 0.00 0.00 0.00 82 1008.5
20260506024925 10 0 8.0 16.1 0.00 0.00 0.00 81 1008.4
20260506023924 10 10 8.0 17.7 0.00 0.00 0.00 81 1008.5
20260506022922 9 17 6.4 19.3 0.00 0.00 0.00 81 1008.6
20260506021917 9 55 9.7 19.3 0.00 0.00 0.00 82 1008.7
20260506020912 9 37 6.4 11.3 0.00 0.00 0.00 82 1008.7
20260506014908 8 38 6.4 11.3 0.00 0.00 0.00 82 1008.9
20260506013910 8 0 3.2 8.0 0.00 0.00 0.00 81 1009.0
20260506012905 8 355 3.2 6.4 0.00 0.00 0.00 80 1009.0
20260506011904 8 355 4.8 8.0 0.00 0.00 0.00 80 1009.0
20260506010907 9 38 3.2 9.7 0.00 0.00 0.00 80 1009.0
20260506004855 8 16 3.2 8.0 0.00 0.00 0.00 80 1009.1
20260506003855 8 34 4.8 9.7 0.00 0.00 0.00 80 1009.3
20260506002853 8 319 3.2 8.0 0.00 0.00 0.00 80 1009.4
20260506001855 8 23 1.6 8.0 0.00 0.00 0.00 80 1009.5
20260506000853 8 39 3.2 4.8 0.00 0.00 0.00 79 1009.5
20260505235853 8 38 3.2 6.4 0.00 0.00 0.00 79 1009.6
20260505234851 8 17 1.6 8.0 0.00 0.00 0.00 79 1009.8
20260505233846 8 7 1.6 6.4 0.00 0.00 0.00 78 1009.9
20260505231847 9 45 3.2 6.4 0.00 0.00 0.00 76 1010.0
20260505230844 9 31 3.2 6.4 0.00 0.00 0.00 75 1010.0
20260505225841 9 24 1.6 6.4 0.00 0.00 0.00 75 1010.0
20260505224840 9 31 3.2 6.4 0.00 0.00 0.00 75 1010.0
20260505223833 9 13 0.0 6.4 0.00 0.00 0.00 74 1010.0
20260505222835 9 35 4.8 11.3 0.00 0.00 0.00 74 1010.1
20260505221832 9 0 4.8 14.5 0.00 0.00 0.00 74 1010.1
20260505220833 9 47 6.4 11.3 0.00 0.00 0.00 74 1010.3
20260505215832 9 31 4.8 11.3 0.00 0.00 0.00 74 1010.3
20260505213833 9 49 3.2 8.0 0.00 0.00 0.00 73 1010.5
20260505212836 9 73 3.2 9.7 0.00 0.00 0.00 73 1010.5
20260505211834 9 66 4.8 8.0 0.00 0.00 0.00 72 1010.5
20260505210830 9 34 6.4 11.3 0.00 0.00 0.00 72 1010.4
20260505204819 10 37 6.4 16.1 0.00 0.00 0.00 71 1010.5
20260505203813 10 66 6.4 14.5 0.00 0.00 0.00 71 1010.4
20260505202808 10 37 6.4 14.5 0.00 0.00 0.00 71 1010.4
20260505201807 10 34 8.0 14.5 0.00 0.00 0.00 71 1010.4
20260505200806 10 63 6.4 17.7 0.00 0.00 0.00 71 1010.4
20260505195806 10 17 6.4 14.5 0.00 0.00 0.00 71 1010.3
20260505194802 10 62 8.0 20.9 0.00 0.00 0.00 70 1010.3
20260505193803 10 7 6.4 14.5 0.00 0.00 0.00 70 1010.3
20260505192802 10 32 6.4 19.3 0.00 0.00 0.00 70 1010.2
20260505191801 10 49 9.7 20.9 0.00 0.00 0.00 69 1010.3
20260505190757 11 86 8.0 14.5 0.00 0.00 0.00 68 1010.2
20260505185744 11 25 9.7 17.7 0.00 0.00 0.00 68 1010.2
20260505184745 11 55 9.7 24.1 0.00 0.00 0.00 68 1010.0
20260505182737 11 37 12.9 22.5 0.00 0.00 0.00 67 1010.0
20260505181737 11 42 11.3 30.6 0.00 0.00 0.00 65 1010.1
20260505180735 11 28 14.5 22.5 0.00 0.00 0.00 65 1010.1
20260505175733 11 35 12.9 24.1 0.00 0.00 0.00 66 1010.1
20260505173733 12 350 9.7 22.5 0.00 0.00 0.00 64 1010.1
20260505172732 12 0 11.3 22.5 0.00 0.00 0.00 63 1010.1
20260505171736 12 1 12.9 24.1 0.00 0.00 0.00 64 1010.1
20260505170733 12 32 9.7 20.9 0.00 0.00 0.00 64 1010.1
20260505165732 12 35 11.3 25.7 0.00 0.00 0.00 65 1010.2
20260505164732 12 73 12.9 24.1 0.00 0.00 0.00 65 1010.2
20260505162728 13 38 14.5 27.4 0.00 0.00 0.00 64 1010.2
20260505161707 13 13 11.3 22.5 0.00 0.00 0.00 64 1010.1
20260505152655 14 32 14.5 24.1 0.00 0.00 0.00 60 1010.1
20260505151653 14 55 6.4 25.7 0.00 0.00 0.00 60 1010.0
20260505150645 14 18 9.7 24.1 0.00 0.00 0.00 59 1010.1
20260505140638 16 80 12.9 24.1 0.00 0.00 0.00 55 1010.4
20260505124632 17 49 11.3 22.5 0.00 0.00 0.00 50 1010.7
20260505123633 17 65 8.0 17.7 0.00 0.00 0.00 51 1010.6
20260505122634 17 344 11.3 20.9 0.00 0.00 0.00 50 1010.7
20260505121631 17 23 6.4 19.3 0.00 0.00 0.00 52 1010.6
20260505120633 16 54 3.2 20.9 0.00 0.00 0.00 52 1010.6
20260505115632 16 28 8.0 20.9 0.00 0.00 0.00 53 1010.7
20260505114631 17 54 8.0 17.7 0.00 0.00 0.00 51 1010.7
20260505113633 16 0 14.5 25.7 0.00 0.00 0.00 53 1010.8